Terug naar catalogus

RASSVET-3 25

ActiefPO
NORAD 100091·PAYLOAD·🇷🇺 Russia

Gelanceerd Jul 19, 2026 vanaf Plesetsk Cosmodrome

Loading…

Volgende Passages (komende 24 uur)

TLE

VersSource: Space-Track

Epoch: Sep 14, 2026, 13:38 UTC

1 A0091U 26165J   26257.56854932 -.00042476  00000-0 -60401-3 0  9993
2 A0091  82.3018 167.9982 0007593 197.4965 162.6029 15.56504253  8933

Volg RASSVET-3 25 in realtime met AllMySat

Download on the App Store